Spokane Fairchild, WA

2:58 AM PDT on September 23, 2017 (GMT -0700)
Fairchild Air Force Base

Weather History for KSKA - January, 2013

Change the Weather History Date:

Tuesday, January 15, 2013

  Actual Average Record
Temperature  
Mean Temperature 22 °F -  
Max Temperature 28 °F 31 °F 45 °F (2011)
Min Temperature 15 °F 22 °F -4 °F (2017)
Degree Days  
Heating Degree Days 44    
Moisture  
Dew Point 22 °F    
Average Humidity 100    
Maximum Humidity 100    
Minimum Humidity 99    
Precipitation  
Precipitation 0.00 in - - ()
Snow  
Snow 0.00 in - - ()
Snow Depth 3.00 in    
Sea Level Pressure  
Sea Level Pressure 30.49 in    
Wind  
Wind Speed 2 mph (SE)    
Max Wind Speed 8 mph    
Max Gust Speed -    
Visibility 7 miles    
Events Fog , Snow    
Averages and records for this station are not official NWS values.
T = Trace of Precipitation, MM = Missing Value Source: NWS Daily Summary

Daily Weather History Graph

Daily Weather History Graph

Search for Another Location

Airport or City:

Trip Planner

Search our weather history database for the weather conditions in past years. The results will help you decide how hot, cold, wet, or windy it might be!

Date:

Astronomy

Jan. 15, 2013 Rise Set
Actual Time 7:33 AM PST 4:26 PM PST
Civil Twilight 6:59 AM PST 5:01 PM PST
Nautical Twilight 6:20 AM PST 5:39 PM PST
Astronomical Twilight 5:44 AM PST 6:16 PM PST
Moon 9:19 AM PST (1/15) 9:46 PM PST (1/15)
Length of Visible Light 10h 02m
Length of Day
8h 53m
Waxing Crescent, 20% of the Moon is Illuminated
Jan 15
Waxing Crescent
Jan 18
First Quarter
Jan 26
Full
Feb 3
Last Quarter
Feb 9
New

Hourly Weather History & Observations

Time (PST) Temp. Windchill Dew Point Humidity Pressure Visibility Wind Dir Wind Speed Gust Speed Precip Events Conditions
12:03 AM 15.8 °F - 15.8 °F 100% 30.38 in 0.8 mi Calm Calm - N/A   Mist
12:08 AM 15.8 °F - 15.8 °F 100% 30.38 in 0.5 mi SSE 1.2 mph - N/A Fog Light Freezing Fog
12:13 AM 15.8 °F - 15.8 °F 100% 30.38 in 0.2 mi SE 1.2 mph - N/A Fog Light Freezing Fog
12:17 AM 15.8 °F - 15.8 °F 100% 30.38 in 0.2 mi SE 1.2 mph - N/A Fog , Snow Light Freezing Fog
12:31 AM 17.6 °F - 17.6 °F 100% 30.37 in 0.2 mi SSW 2.3 mph - N/A Fog Light Freezing Fog
12:32 AM 17.6 °F - 17.6 °F 100% 30.38 in 0.2 mi SSW 2.3 mph - N/A Fog Light Freezing Drizzle
12:58 AM 16.5 °F - 16.5 °F 100% 30.52 in 0.2 mi Calm Calm - 0.00 in Fog Light Freezing Drizzle
1:01 AM 15.8 °F 10.2 °F 15.8 °F 100% 30.40 in 0.2 mi NNE 3.5 mph - N/A Fog Light Freezing Fog
1:06 AM 15.8 °F - 15.8 °F 100% 30.41 in 0.5 mi Calm Calm - N/A Fog Light Freezing Fog
1:11 AM 15.8 °F - 15.8 °F 100% 30.40 in 0.5 mi South 1.2 mph - N/A Fog Light Freezing Fog
1:16 AM 15.8 °F - 15.8 °F 100% 30.40 in 0.8 mi SSW 1.2 mph - N/A   Mist
1:17 AM 15.8 °F - 15.8 °F 100% 30.40 in 0.8 mi South 1.2 mph - N/A   Mist
1:22 AM 15.8 °F - 15.8 °F 100% 30.39 in 0.5 mi SSW 2.3 mph - N/A Fog Light Freezing Fog
1:27 AM 15.8 °F - 15.8 °F 100% 30.40 in 0.5 mi South 2.3 mph - N/A Fog Light Freezing Fog
1:37 AM 17.6 °F - 17.6 °F 100% 30.40 in 0.5 mi SW 2.3 mph - N/A Fog Light Freezing Fog
1:42 AM 17.6 °F - 17.6 °F 100% 30.40 in 2.5 mi SW 2.3 mph - N/A   Overcast
1:47 AM 17.6 °F - 17.6 °F 100% 30.40 in 7.0 mi SW 2.3 mph - N/A   Overcast
1:58 AM 17.6 °F - 17.6 °F 100% 30.53 in 8.0 mi SW 1.2 mph - 0.00 in   Overcast
2:43 AM 19.4 °F - 19.4 °F 100% 30.41 in 9.0 mi Variable 1.2 mph - N/A   Mostly Cloudy
2:58 AM 18.5 °F - 18.5 °F 100% 30.53 in 8.0 mi Variable 1.2 mph - N/A   Mostly Cloudy
3:08 AM 17.6 °F - 17.6 °F 100% 30.41 in 8.0 mi NE 2.3 mph - N/A Snow Light Snow
3:18 AM 17.6 °F - 17.6 °F 100% 30.41 in 10.0 mi Calm Calm - N/A   Overcast
3:19 AM 17.6 °F - 17.6 °F 100% 30.41 in 10.0 mi ENE 1.2 mph - N/A   Light Freezing Drizzle
3:44 AM 17.6 °F - 17.6 °F 100% 30.42 in 10.0 mi Calm Calm - N/A   Light Freezing Drizzle
3:48 AM 17.6 °F - 17.6 °F 100% 30.41 in 10.0 mi Calm Calm - N/A   Scattered Clouds
3:58 AM 17.2 °F - 17.2 °F 100% 30.54 in 10.0 mi Calm Calm - 0.00 in   Partly Cloudy
4:03 AM 17.6 °F - 17.6 °F 100% 30.42 in 8.0 mi Calm Calm - N/A   Partly Cloudy
4:18 AM 17.6 °F - 17.6 °F 100% 30.41 in 5.0 mi WSW 2.3 mph - N/A   Mostly Cloudy
4:23 AM 17.6 °F - 17.6 °F 100% 30.41 in 4.0 mi Calm Calm - N/A   Mostly Cloudy
4:28 AM 17.6 °F - 17.6 °F 100% 30.42 in 5.0 mi Calm Calm - N/A   Mostly Cloudy
4:33 AM 17.6 °F - 17.6 °F 100% 30.42 in 8.0 mi Calm Calm - N/A   Overcast
4:38 AM 17.6 °F - 17.6 °F 100% 30.42 in 10.0 mi Calm Calm - N/A   Overcast
4:43 AM 17.6 °F - 17.6 °F 100% 30.41 in 10.0 mi SSW 1.2 mph - N/A   Overcast
4:58 AM 17.1 °F - 17.1 °F 100% 30.54 in 10.0 mi Calm Calm - N/A   Overcast
5:23 AM 19.4 °F 14.3 °F 19.4 °F 100% 30.42 in 10.0 mi South 3.5 mph - N/A Snow Light Snow
5:28 AM 19.4 °F 14.3 °F 19.4 °F 100% 30.42 in 10.0 mi SSW 3.5 mph - N/A Snow Light Snow
5:38 AM 19.4 °F - 19.4 °F 100% 30.43 in 1.2 mi SSW 2.3 mph - N/A Snow Light Snow
5:39 AM 19.4 °F - 19.4 °F 100% 30.43 in 1.0 mi SSW 2.3 mph - N/A   Overcast
5:40 AM 19.4 °F - 19.4 °F 100% 30.43 in 1.0 mi SSW 2.3 mph - N/A   Light Freezing Drizzle
5:45 AM 19.4 °F - 19.4 °F 100% 30.43 in 1.2 mi South 2.3 mph - N/A   Light Freezing Drizzle
5:50 AM 19.4 °F - 19.4 °F 100% 30.43 in 5.0 mi South 2.3 mph - N/A   Light Freezing Drizzle
5:58 AM 19.0 °F - 19.0 °F 100% 30.56 in 10.0 mi Calm Calm - 0.00 in   Light Freezing Drizzle
6:09 AM 19.4 °F - 19.4 °F 100% 30.44 in 10.0 mi ESE 2.3 mph - N/A   Overcast
6:58 AM 19.2 °F - 19.2 °F 100% 30.58 in 10.0 mi Calm Calm - 0.00 in   Overcast
7:03 AM 19.4 °F - 19.4 °F 100% 30.45 in 10.0 mi ENE 1.2 mph - N/A   Overcast
7:13 AM 19.4 °F - 19.4 °F 100% 30.46 in 10.0 mi Calm Calm - N/A   Overcast
7:42 AM 17.6 °F - 17.6 °F 100% 30.47 in 10.0 mi SSE 1.2 mph - N/A Snow Light Snow
7:48 AM 19.4 °F - 19.4 °F 100% 30.47 in 10.0 mi South 2.3 mph - N/A   Overcast
7:49 AM 19.4 °F - 19.4 °F 100% 30.47 in 10.0 mi South 2.3 mph - N/A   Light Freezing Drizzle
7:55 AM 19.6 °F - 19.6 °F 100% 30.59 in 10.0 mi Calm Calm - N/A   Overcast
8:20 AM 19.4 °F - 19.4 °F 100% 30.49 in 10.0 mi Calm Calm - N/A   Overcast
8:27 AM 19.4 °F - 19.4 °F 100% 30.49 in 10.0 mi SSE 2.3 mph - N/A Snow Light Snow
8:55 AM 18.7 °F - 18.7 °F 100% 30.61 in 10.0 mi Calm Calm - N/A   Overcast
9:34 AM 19.4 °F 14.3 °F 19.4 °F 100% 30.50 in 9.0 mi East 3.5 mph - N/A   Overcast
9:55 AM 20.7 °F - 20.7 °F 100% 30.64 in 10.0 mi Calm Calm - N/A   Overcast
10:04 AM 21.2 °F - 21.2 °F 100% 30.52 in 10.0 mi West 1.2 mph - N/A   Scattered Clouds
10:20 AM 21.2 °F - 21.2 °F 100% 30.52 in 10.0 mi SSW 2.3 mph - N/A   Clear
10:31 AM 21.2 °F - 21.2 °F 100% 30.52 in 10.0 mi Calm Calm - N/A   Clear
10:42 AM 21.2 °F - 21.2 °F 100% 30.52 in 10.0 mi Calm Calm - N/A   Clear
10:52 AM 21.2 °F - 21.2 °F 100% 30.52 in 10.0 mi Calm Calm - N/A   Clear
10:58 AM 20.8 °F - 20.8 °F 100% 30.64 in 10.0 mi East 1.2 mph - 0.00 in   Clear
11:41 AM 21.2 °F - 21.2 °F 100% 30.51 in 10.0 mi East 1.2 mph - N/A   Mostly Cloudy
11:58 AM 22.1 °F - 22.1 °F 100% 30.65 in 10.0 mi Variable 1.2 mph - N/A   Overcast
12:09 PM 23.0 °F 18.4 °F 23.0 °F 100% 30.51 in 10.0 mi South 3.5 mph - N/A   Overcast
12:21 PM 23.0 °F 15.8 °F 23.0 °F 100% 30.51 in 10.0 mi South 5.8 mph - N/A   Overcast
12:32 PM 24.8 °F 17.9 °F 24.8 °F 100% 30.50 in 10.0 mi South 5.8 mph - N/A   Overcast
12:39 PM 24.8 °F 19.1 °F 24.8 °F 100% 30.51 in 10.0 mi South 4.6 mph - N/A   Overcast
12:58 PM 25.0 °F 17.1 °F 25.0 °F 100% 30.63 in 10.0 mi South 6.9 mph - 0.00 in   Overcast
1:05 PM 24.8 °F 19.1 °F 24.8 °F 100% 30.51 in 10.0 mi South 4.6 mph - N/A   Overcast
1:22 PM 24.8 °F 19.1 °F 24.8 °F 100% 30.51 in 10.0 mi South 4.6 mph - N/A   Overcast
1:27 PM 26.6 °F 21.2 °F 26.6 °F 100% 30.50 in 10.0 mi South 4.6 mph - N/A   Overcast
1:28 PM 26.6 °F 21.2 °F 26.6 °F 100% 30.51 in 10.0 mi South 4.6 mph - N/A   Overcast
1:34 PM 26.6 °F 21.2 °F 26.6 °F 100% 30.50 in 10.0 mi South 4.6 mph - N/A   Overcast
1:51 PM 26.6 °F 20.0 °F 26.6 °F 100% 30.51 in 10.0 mi SSE 5.8 mph - N/A   Overcast
1:55 PM 26.6 °F 19.1 °F 26.6 °F 100% 30.51 in 10.0 mi SSE 6.9 mph - N/A   Overcast
1:59 PM 26.6 °F 19.1 °F 26.6 °F 100% 30.63 in 10.0 mi SSE 6.9 mph - 0.00 in   Overcast
2:09 PM 26.6 °F 18.2 °F 26.6 °F 100% 30.51 in 10.0 mi SSE 8.1 mph - N/A   Overcast
2:36 PM 26.6 °F 19.1 °F 26.6 °F 100% 30.52 in 10.0 mi SSE 6.9 mph - N/A   Overcast
2:58 PM 27.3 °F 19.9 °F 27.3 °F 100% 30.63 in 10.0 mi SSE 6.9 mph - 0.00 in   Overcast
3:27 PM 26.6 °F 20.0 °F 26.6 °F 100% 30.52 in 10.0 mi South 5.8 mph - N/A   Overcast
3:38 PM 26.6 °F 19.1 °F 26.6 °F 100% 30.52 in 10.0 mi SSE 6.9 mph - N/A   Overcast
3:58 PM 27.1 °F 23.2 °F 27.1 °F 100% 30.63 in 10.0 mi South 3.5 mph - 0.00 in   Overcast
4:20 PM 26.6 °F 20.0 °F 26.6 °F 100% 30.52 in 10.0 mi SE 5.8 mph - N/A   Overcast
4:35 PM 26.6 °F 21.2 °F 26.6 °F 100% 30.52 in 10.0 mi South 4.6 mph - N/A   Overcast
4:39 PM 26.6 °F 21.2 °F 26.6 °F 100% 30.52 in 10.0 mi South 4.6 mph - N/A   Overcast
4:44 PM 26.6 °F 21.2 °F 26.6 °F 100% 30.52 in 10.0 mi South 4.6 mph - N/A   Overcast
4:51 PM 26.6 °F 22.6 °F 26.6 °F 100% 30.52 in 9.0 mi South 3.5 mph - N/A   Overcast
4:58 PM 27.3 °F - 27.3 °F 100% 30.63 in 8.0 mi South 2.3 mph - 0.00 in   Overcast
4:59 PM 26.6 °F - 26.6 °F 100% 30.52 in 9.0 mi South 2.3 mph - N/A   Overcast
5:44 PM 26.6 °F - 26.6 °F 100% 30.52 in 9.0 mi East 2.3 mph - N/A   Overcast
5:54 PM 28.4 °F 24.6 °F 28.4 °F 100% 30.52 in 9.0 mi East 3.5 mph - N/A   Overcast
5:58 PM 27.7 °F - 27.5 °F 99% 30.63 in 9.0 mi East 2.3 mph - 0.00 in   Overcast
6:08 PM 28.4 °F 24.6 °F 28.4 °F 100% 30.52 in 10.0 mi ENE 3.5 mph - N/A   Overcast
6:10 PM 28.4 °F 24.6 °F 28.4 °F 100% 30.52 in 10.0 mi ENE 3.5 mph - N/A   Overcast
6:25 PM 28.4 °F 24.6 °F 28.4 °F 100% 30.52 in 10.0 mi ENE 3.5 mph - N/A   Overcast
6:51 PM 28.4 °F - 28.4 °F 100% 30.52 in 10.0 mi East 1.2 mph - N/A   Overcast
6:58 PM 28.4 °F 24.6 °F 28.4 °F 100% 30.63 in 10.0 mi NNE 3.5 mph - N/A   Overcast
7:30 PM 28.4 °F 24.6 °F 28.4 °F 100% 30.51 in 8.0 mi NNE 3.5 mph - N/A   Overcast
7:58 PM 26.8 °F 21.4 °F 26.8 °F 100% 30.62 in 8.0 mi NNE 4.6 mph - N/A   Overcast
8:58 PM 24.6 °F 20.3 °F 24.6 °F 100% 30.62 in 6.0 mi NE 3.5 mph - N/A   Mostly Cloudy
9:55 PM 23.0 °F 17.0 °F 23.0 °F 100% 30.50 in 2.5 mi NE 4.6 mph - N/A   Overcast
9:59 PM 23.4 °F 17.4 °F 23.4 °F 100% 30.62 in 2.0 mi NE 4.6 mph - N/A   Overcast
10:04 PM 23.0 °F 17.0 °F 23.0 °F 100% 30.50 in 0.8 mi NE 4.6 mph - N/A   Mostly Cloudy
10:06 PM 23.0 °F 17.0 °F 23.0 °F 100% 30.50 in 0.5 mi NE 4.6 mph - N/A Fog Light Freezing Fog
10:19 PM 21.2 °F 13.6 °F 21.2 °F 100% 30.50 in 0.5 mi NE 5.8 mph - N/A Fog Light Freezing Fog
10:24 PM 21.2 °F 14.9 °F 21.2 °F 100% 30.50 in 0.8 mi NE 4.6 mph - N/A   Overcast
10:31 PM 21.2 °F 14.9 °F 21.2 °F 100% 30.49 in 0.5 mi NE 4.6 mph - N/A Fog Light Freezing Fog
10:36 PM 21.2 °F 14.9 °F 21.2 °F 100% 30.49 in 0.8 mi NE 4.6 mph - N/A   Mist
10:41 PM 21.2 °F 13.6 °F 21.2 °F 100% 30.49 in 0.5 mi NE 5.8 mph - N/A Fog Light Freezing Fog
10:49 PM 21.2 °F 14.9 °F 21.2 °F 100% 30.49 in 0.5 mi NE 4.6 mph - N/A Fog Light Freezing Fog
10:54 PM 23.0 °F 18.4 °F 23.0 °F 100% 30.49 in 0.5 mi ENE 3.5 mph - N/A Fog Light Freezing Fog
10:55 PM 23.0 °F 18.4 °F 23.0 °F 100% 30.49 in 0.5 mi NE 3.5 mph - N/A Fog , Snow Light Freezing Fog
10:59 PM 21.2 °F - 21.2 °F 100% 30.61 in 0.5 mi ENE 2.3 mph - 0.00 in Fog , Snow Light Freezing Fog
11:10 PM 23.0 °F - 23.0 °F 100% 30.49 in 0.2 mi ENE 2.3 mph - N/A Fog , Snow Light Freezing Fog
11:15 PM 23.0 °F - 23.0 °F 100% 30.48 in 0.2 mi ENE 1.2 mph - N/A Fog , Snow Light Freezing Fog
11:49 PM 23.0 °F - 23.0 °F 100% 30.48 in 0.2 mi Calm Calm - N/A Fog Light Freezing Fog
11:50 PM 23.0 °F - 23.0 °F 100% 30.48 in 0.2 mi Calm Calm - N/A Fog Light Freezing Drizzle
11:58 PM 22.5 °F - 22.3 °F 99% 30.60 in 0.2 mi North - - 0.00 in Fog Light Freezing Drizzle